Zurück zum Katalog

FENGYUN 1C DEB

AktivPO
NORAD 31779·DEBRIS·🇨🇳 China

Gestartet May 10, 1999 von Taiyuan Satellite Launch Center

Loading…

Nächste Überflüge (nächste 24 Stunden)

TLE

AktuellSource: Space-Track

Epoche: Sep 14, 2026, 13:56 UTC

1 31779U 99025CGE 26257.58101245  .00000847  00000-0  20955-3 0  9993
2 31779  99.3151 207.5133 0212408  93.5410 269.0095 14.42344533  9314

Verfolge FENGYUN 1C DEB in Echtzeit mit AllMySat

Download on the App Store